Location: Fiddletown
(38.4917°N, 120.6633°W)
Time: 16:48:00
(UTC-07:00)

Envisat - Visible Passes

Search period start: 29 March 2015 00:00
Search period end: 08 April 2015 00:00
Orbit: 765 x 766 km, 98.3° (Epoch: 29 March)

Date Brightness Start Highest point End Pass type
(mag) Time Alt. Az. Time Alt. Az. Time Alt. Az.
29 Mar 4.3 21:19:14 24° NE 21:19:14 24° NE 21:22:20 10° NNE visible
29 Mar 5.2 22:59:26 22° NW 22:59:26 22° NW 23:01:38 10° NNW visible
30 Mar 5.0 20:42:05 12° ENE 20:42:05 12° ENE 20:43:54 10° NE visible
30 Mar 4.2 22:22:18 38° NNW 22:22:18 38° NNW 22:25:25 10° NNW visible
31 Mar 3.9 21:45:09 37° NNE 21:45:09 37° NNE 21:48:38 10° N visible
31 Mar 5.6 23:25:21 15° WNW 23:25:21 15° WNW 23:26:37 10° NW visible
01 Apr 4.5 21:08:00 21° ENE 21:08:00 21° ENE 21:11:13 10° NNE visible
01 Apr 4.7 22:48:12 29° NW 22:48:12 29° NW 22:51:01 10° NNW visible
02 Apr 3.8 22:11:03 46° N 22:11:03 46° N 22:14:38 10° N visible
03 Apr 3.9 21:33:55 33° NE 21:33:55 33° NE 21:37:41 10° N visible
03 Apr 5.3 23:14:07 19° WNW 23:14:07 19° WNW 23:16:14 10° NW visible
04 Apr 4.6 20:56:46 17° ENE 20:56:46 17° ENE 20:59:59 10° NNE visible
04 Apr 4.2 22:36:58 39° NW 22:36:58 39° NW 22:40:21 10° NNW visible
05 Apr 3.5 21:59:49 50° NNE 21:59:49 50° NNE 22:03:47 10° N visible
05 Apr 5.8 23:40:02 11° WNW 23:40:02 11° WNW 23:40:37 10° WNW visible
06 Apr 4.0 21:22:41 28° ENE 21:22:41 28° ENE 21:26:39 10° N visible
06 Apr 4.9 23:02:53 25° WNW 23:02:53 25° WNW 23:05:44 10° NW visible
07 Apr 4.8 20:45:32 13° ENE 20:46:02 13° ENE 20:48:31 10° NNE visible
07 Apr 3.7 22:25:45 51° NW 22:25:45 51° NW 22:29:37 10° NNW visible
